Flag Weather past 2 weeks in Lafayette, Louisiana, U.S.A.

Now
61 °F

Sunny.


Feels Like: 61 °F
Forecast: 41 / 60 °F
Wind: 13 mph from North

Location: Lafayette Regional Airport

Current Time: Nov 27, 2014 at 2:54:35 PM

Latest Report: Nov 27, 2014 at 1:53 PM


Visibility: 10 mi

Pressure: 30.40 "Hg

Humidity: 31%

Dew point: 30 °F

Location of LafayetteLocation

Historic Weather in Lafayette — Graph

°F

Lafayette temperature yesterday

Maximum temperature yesterday: 69 °F (at 12:53 PM)
Minimum temperature yesterday: 37 °F (at 5:00 AM)
Average temperature yesterday: 54 °F

Past Weeks' High & Low Weather Summary

 TemperatureHumidityPressure
High74 °F (Nov 16, 10:53 AM)100% (Nov 16, 5:02 PM)30.53 "Hg (Nov 16, 5:02 PM)
Low30 °F (Nov 19, 1:53 AM)25% (Nov 19, 2:53 PM)29.60 "Hg (Nov 23, 2:53 PM)
Average52 °F66%30.18 "Hg
* Reported Nov 12 1:53 PM — Nov 27 1:53 PM, Lafayette, Weather by CustomWeather, © 2014

Note: Actual official high and low records may vary slightly from our data, if they occured in-between our weather recording intervals... More about our weather records

Advertising

Lafayette weather history for previous 24 hours

 ConditionsComfort  
Time TempWeatherWind HumidityBarometerVisibility
1:53 PM
Nov 27
61 °FSunny.13 mph31%30.40 "Hg10 mi
12:53 PM60 °FSunny.15 mph35%30.41 "Hg10 mi
11:53 AM58 °FSunny.9 mph38%30.44 "Hg10 mi
10:53 AM57 °FSunny.13 mph39%30.47 "Hg10 mi
9:53 AM54 °FSunny.17 mph43%30.47 "Hg10 mi
8:53 AM52 °FSunny.15 mph53%30.46 "Hg10 mi
7:53 AM50 °FSunny.7 mph59%30.46 "Hg10 mi
6:53 AM47 °FSunny.7 mph64%30.43 "Hg10 mi
5:53 AM48 °FClear.10 mph66%30.40 "Hg10 mi
4:53 AM49 °FClear.7 mph69%30.37 "Hg10 mi
3:53 AM47 °FClear.6 mph80%30.35 "Hg10 mi
2:53 AM47 °FClear.5 mph83%30.34 "Hg10 mi
1:53 AM50 °FClear.5 mph80%30.33 "Hg10 mi
12:53 AM52 °FClear.8 mph80%30.32 "Hg10 mi
11:53 PM
Nov 26
53 °FClear.6 mph83%30.29 "Hg10 mi
10:53 PM54 °FClear.6 mph80%30.27 "Hg10 mi
9:53 PM57 °FClear.10 mph74%30.26 "Hg10 mi
8:53 PM57 °FClear.9 mph74%30.25 "Hg10 mi
7:53 PM58 °FClear.9 mph72%30.24 "Hg10 mi
6:53 PM60 °FClear.12 mph62%30.22 "Hg10 mi
5:53 PM62 °FClear.13 mph54%30.20 "Hg10 mi
4:53 PM64 °FSunny.13 mph43%30.19 "Hg10 mi
3:53 PM67 °FSunny.14 mph37%30.19 "Hg10 mi
2:53 PM69 °FSunny.17 mph31%30.16 "Hg10 mi
Weather by CustomWeather, © 2014

See weather overviewHow to use our weather pages